Regional Weather Roundup
Issued by NWS

Home | Current Version | Previous Version | Graphics & Text | Print | Product List | Glossary On
Versions: 1 2 3 4 5 6 7 8 9 10 11 12 13 14 15 16 17 18 19 20 21 22 23 24 25 26 27 28 29 30 31 32 33 34 35 36 37 38 39 40 41 42 43 44 45 46 47 48 49 50
000
ASUS43 KOAX 161502
RWRNE

WEATHER ROUNDUP FOR NEBRASKA
NATIONAL WEATHER SERVICE OMAHA NE
1000 AM CDT WED APR 16 2014

NOTES: SATELLITE DATA IS BEING USED TO AUGMENT CLOUD COVER ABOVE
       12000 FEET.
       "FAIR" INDICATES FEW OR NO CLOUDS BELOW 12,000 FEET WITH NO
       SIGNIFICANT WEATHER AND/OR OBSTRUCTIONS TO VISIBILITY.

  * THESE STATIONS DO NOT REPORT WEATHER SUCH AS RAIN...SNOW OR FOG.

NEZ001>004-019>022-054>056-161600-
NEBRASKA PANHANDLE

CITY           SKY/WX    TMP DP  RH WIND       PRES   REMARKS
SCOTTSBLUFF    CLOUDY    43  30  60 NW26G35   29.88R
ALLIANCE       CLOUDY    38  34  85 NW23G32   29.81R WCI  27
CHADRON        LGT RAIN  39  36  89 NW18G25   29.85R FOG     WCI  30
KIMBALL        SUNNY     42  26  54 NW29G39   29.84S
SIDNEY         SUNNY     46  30  53 NW33G40   29.83R
$$

NEZ057>060-069>072-079>082-161600-
SOUTHWEST NEBRASKA

CITY           SKY/WX    TMP DP  RH WIND       PRES   REMARKS
NORTH PLATTE   MOSUNNY   49  37  63 NW29G41   29.72R
IMPERIAL       MOSUNNY   48  34  58 NW31G43   29.78R
LEXINGTON      PTSUNNY   52  40  64 NW28G35   29.69R
MCCOOK         PTSUNNY   52  36  54 NW29G38   29.73R
OGALLALA       SUNNY     49  35  58 NW31G40   29.77R
$$

NEZ005>010-023>029-035>040-094-161600-
NORTH CENTRAL NEBRASKA

CITY           SKY/WX    TMP DP  RH WIND       PRES   REMARKS
VALENTINE      CLOUDY    34  31  88 NW21G29   29.74R WCI  22
AINSWORTH      CLOUDY    36  32  85 NW20G28   29.71R WCI  25
BROKEN BOW     PTSUNNY   49  37  63 NW24G35   29.67R
O`NEILL        PTSUNNY   45  32  60 W18       29.63R
ORD            CLOUDY    51  31  46 NW20G28   29.62S
THEDFORD       CLOUDY    42  33  72 NW20G28   29.73R
$$

NEZ041-046>049-061>064-073>077-083>087-161600-
SOUTH CENTRAL NEBRASKA

CITY           SKY/WX    TMP DP  RH WIND       PRES   REMARKS
GRAND ISLAND   CLOUDY    50  23  34 S22G30    29.64R
AURORA         CLOUDY    50  25  38 S21G32    29.65R
HASTINGS       CLOUDY    51  21  30 S13G24    29.65R
HEBRON         CLOUDY    54  22  28 S30G37    29.69F
HOLDREGE       CLOUDY    48  32  54 W16       29.67R
KEARNEY *      CLOUDY    46  27  46 W13G20    29.65R
YORK           CLOUDY    48  25  40 S23G35    29.67R
$$

NEZ011>018-030>034-042>045-161600-
NORTHEAST NEBRASKA

CITY           SKY/WX    TMP DP  RH WIND       PRES   REMARKS
NORFOLK        CLOUDY    49  25  39 S21G29    29.62R
ALBION         CLOUDY    47  25  42 S9        29.63S
BLAIR          CLOUDY    51  28  40 S26G40    29.71S
COLUMBUS *     CLOUDY    50  25  37 S17G25    29.66R
FREMONT        CLOUDY    52  26  36 S18G28    29.69F
TEKAMAH        CLOUDY    51  28  41 S28       29.70F
$$

NEZ050>053-065>068-078-088>093-161600-
SOUTHEAST NEBRASKA

CITY           SKY/WX    TMP DP  RH WIND       PRES   REMARKS
LINCOLN        CLOUDY    54  24  31 S29G38    29.70S
OMAHA EPPLEY   CLOUDY    52  27  38 S18G33    29.74F
BEATRICE       CLOUDY    54  24  32 S29G43    29.73F
FALLS CITY     PTSUNNY   52  29  41 S22G36    29.83F
NEBRASKA CITY  CLOUDY    54  28  37 S26G37    29.76F
PLATTSMOUTH    CLOUDY    52  26  36 S24G33    29.75S
$$

NEZ044-045-051>053-067-161600-
OMAHA AREA

CITY           SKY/WX    TMP DP  RH WIND       PRES   REMARKS
OMAHA EPPLEY   CLOUDY    52  27  38 S18G33    29.74F
BLAIR          CLOUDY    51  28  40 S26G40    29.71S
FREMONT        CLOUDY    52  26  36 S18G28    29.69F
MILLARD        CLOUDY    51  28  40 S17G28    29.73S
OFFUTT AFB     CLOUDY    52  29  40 S20G29    29.75F
PLATTSMOUTH    CLOUDY    52  26  36 S24G33    29.75S
WAHOO          FAIR      53  23  31 S21G31    29.70S
$$



USA.gov is the U.S. government's official web portal to all federal, state and local government web resources and services.